www.pogodaiklimat.ru

Погода и климат >> Архив погоды >> Малайзия >> Куала-Лумпур


АРХИВ ПОГОДЫ в Куала-Лумпуре

Время (UTC), дата Ветер
(напр.,м/с)
 
Видим.   Явления Облачность Т
(С)
Тd
(С)
f
(%)
Тe
(С)
Тes
(С)
Комфортность P
(гПа)
Po
(гПа)
Тmin
(С)
Tmax
(С)
R
(мм)
R24
(мм)
S
(см)
00 13.08 ЮВ 1 8000 м мгла 9/1 50 м
[Cb cap Ac trans Ci fib]
+26.7 +24.1 86 +37 +38 очень
душно
1010.3 1007.8 +25.7 0.0
03 13.08 Ю 4 12 км мгла 9/4 500 м
[Cb cap Ac lent Ci sp]
+31.3 +25.6 72 +46 +50 опасность
перегрева
1011.9 1009.4
06 13.08 Ю 2 12 км мгла 9/3 540 м
[Cu med, cong Ac lent Ci sp]
+33.6 +23.9 57 +45 +53 опасность
перегрева
1009.9 1007.4
09 13.08 Ю 3 12 км мгла 9/3 540 м
[Cu med, cong Ac lent Ci sp]
+33.2 +24.2 59 +45 +47 опасность
перегрева
1008.1 1005.6
12 13.08 Ю 3 10 км мгла 9/1 800 м
[Sc Ac lent Ci sp]
+31.0 +23.6 65 +42 +42 опасность
перегрева
1009.6 1007.1 +35.0
15 13.08 В 1 9000 м мгла 8/1 800 м
[Sc Ac lent Ci fib]
+29.5 +24.7 75 +42 +42 опасность
перегрева
1011.2 1008.7
18 13.08 штиль 0 9000 м мгла 9/1 800 м
[Sc Ac lent Ci sp]
+27.8 +25.1 85 +40 +40 очень
душно
1010.8 1008.3
21 13.08 С 1 7000 м мгла 9/1 800 м
[Sc Ac lent Ci sp]
+27.2 +24.7 86 +39 +39 очень
душно
1010.1 1007.6
00 14.08 штиль 0 6000 м мгла 10/3 50 м
[Cb cap Ac lent Cs]
+27.4 +24.7 85 +39 +39 очень
душно
1011.2 1008.7 +26.8
03 14.08 Ю 3 9000 м мгла 10/1 500 м
[Cu hum Ac und Cs]
+28.9 +24.6 78 +41 +47 опасность
перегрева
1013.2 1010.7
06 14.08 Ю 1 10 км мгла 9/4 500 м
[Cb calv Ac lent Ci sp]
+32.0 +25.1 67 +46 +54 опасность
перегрева
1010.4 1007.9
09 14.08 В 2 6000 м слаб. ливневой дождь, в посл. час гроза 10/3 500 м
[Cb cap Ac lent Ci sp]
+25.8 +25.0 95 +37 +39 очень
душно
1009.3 1006.8
12 14.08 штиль 0 8000 м мгла {гроза} 9/3 720 м
[Sc Ac lent Ci sp]
+25.6 +24.6 94 +36 +36 очень
душно
1010.7 1008.2 +32.8 14
15 14.08 штиль 0 6000 м зарница 9/3 500 м
[Cb cap Ac lent Ci sp]
+25.7 +24.7 94 +36 +36 очень
душно
1012.6 1010.1
18 14.08 ЮВ 3 6000 м зарница 9/3 500 м
[Cb cap Ac lent Ci sp]
+26.1 +24.7 92 +37 +37 очень
душно
1012.8 1010.3
21 14.08 В 2 7000 м зарница 9/3 500 м
[Cb cap Ac lent Ci sp]
+25.4 +24.2 93 +35 +35 очень
душно
1011.4 1008.9
00 15.08 ЮВ 1 8000 м мгла 9/1 <50 м
[Sc Ac lent Ci sp]
+25.7 +24.1 91 +36 +36 очень
душно
1012.3 1009.8 +24.9 14
03 15.08 ЮВ 3 12 км мгла 9/3 500 м
[Cb cap Ac trans Ci fib]
+30.2 +25.3 75 +44 +49 опасность
перегрева
1013.8 1011.3
06 15.08 ЮЗ 3 13 км мгла 9/3 500 м
[Cb cap Ac lent Ci sp]
+30.9 +25.0 71 +44 +51 опасность
перегрева
1011.4 1008.9
09 15.08 З 2 4000 м гроза, ливневой дождь 10/4 180 м
[Cb cap Ac und Cs]
+24.4 +24.0 98 +34 +36 очень
душно
1010.3 1007.8
12 15.08 ЮВ 2 10 км в посл. час дождь {гроза} 9/4 180 м
[Sc Ac lent Cs]
+24.6 +23.9 96 +34 +34 очень
душно
1010.6 1008.1 +32.3 41
15 15.08 Ю 1 6000 м мгла {дождь} 9/4 720 м
[Sc Ac lent Ci sp]
+24.6 +24.2 98 +34 +34 очень
душно
1012.8 1010.3
18 15.08 штиль 0 6000 м мгла {дождь} 9/5 150 м
[Sc Ac lent Ci sp]
+24.2 +23.9 98 +33 +33 очень
душно
1011.2 1008.7
21 15.08 штиль 0 6000 м мгла 9/5 150 м
[Sc Ac lent Ci sp]
+24.0 +23.5 97 +32 +32 очень
душно
1010.8 1008.3
00 16.08 ЮВ 2 10 км мгла 9/4 <50 м
[Sc Ac lent Ci fib]
+24.8 +23.2 91 +33 +34 очень
душно
1011.9 1009.4 +23.9 41
03 16.08 ЮВ 1 12 км мгла 9/1 570 м
[Cu med, cong Ac trans Ci sp]
+29.4 +24.6 75 +42 +50 опасность
перегрева
1013.2 1010.7
06 16.08 Ю 6 12 км мгла 9/4 500 м
[Cb calv Ac trans Ci sp]
+32.2 +24.6 64 +45 +48 опасность
перегрева
1011.1 1008.6
09 16.08 ЮВ 4 11 км мгла 9/4 500 м
[Cb cap Ac trans Ci sp]
+30.8 +24.3 68 +43 +44 опасность
перегрева
1009.1 1006.6
12 16.08 ЮВ 2 8000 м мгла 9/3 720 м
[Sc Ac lent Ci sp]
+29.5 +24.7 75 +42 +42 опасность
перегрева
1010.4 1007.9 +32.7
15 16.08 штиль 0 8000 м мгла 9/3 720 м
[Sc Ac lent Ci sp]
+27.9 +24.5 82 +39 +39 очень
душно
1012.2 1009.7
18 16.08 штиль 0 7000 м зарница 9/4 500 м
[Cb cap Ac lent Ci sp]
+26.8 +24.5 87 +38 +38 очень
душно
1011.4 1008.9
21 16.08 штиль 0 7000 м зарница 9/4 500 м
[Cb cap Ac lent Ci sp]
+25.6 +24.3 93 +36 +36 очень
душно
1010.9 1008.4
00 17.08 штиль 0 9000 м мгла 9/3 <50 м
[Sc Ac lent Ci sp]
+26.0 +24.3 90 +36 +37 очень
душно
1011.9 1009.4 +24.9
03 17.08 Ю 4 6000 м мгла 9/1 540 м
[Cu med, cong Ac trans Ci sp]
+31.2 +25.0 70 +45 +50 опасность
перегрева
1012.3 1009.8
06 17.08 ЮВ 4 8000 м мгла 9/4 500 м
[Cb cap Ac lent Ci sp]
+33.4 +24.6 60 +46 +51 опасность
перегрева
1009.8 1007.3
09 17.08 ЮВ 4 10 км мгла 9/4 500 м
[Cb cap Ac trans Ci sp]
+31.4 +24.5 67 +44 +46 опасность
перегрева
1008.1 1005.6
12 17.08 В 1 10 км мгла 9/1 800 м
[Sc Ac lent Ci sp]
+29.3 +24.4 75 +41 +41 опасность
перегрева
1009.7 1007.2 +35.1
15 17.08 ЮВ 2 7000 м мгла 9/1 840 м
[Sc Ac trans Ci fib]
+27.8 +23.3 77 +38 +38 очень
душно
1010.6 1008.1
18 17.08 СВ 1 6000 м мгла 9/1 800 м
[Sc Ac trans Ci sp]
+26.3 +23.8 86 +36 +36 очень
душно
1010.9 1008.4
21 17.08 штиль 0 5000 м мгла 9/1 800 м
[Sc Ac trans Ci sp]
+25.7 +24.0 90 +35 +35 очень
душно
1010.4 1007.9
00 18.08 СЗ 1 7000 м мгла 9/3 <50 м
[St Ac lent Ci sp]
+26.1 +23.6 86 +35 +36 очень
душно
1011.8 1009.3 +25.7
03 18.08 СВ 1 10 км мгла 9/1 540 м
[Cu hum Ac lent Ci sp]
+31.2 +23.9 65 +43 +52 опасность
перегрева
1012.8 1010.3
06 18.08 Ю 4 13 км мгла 9/3 540 м
[Cu med, cong Ac lent Ci sp]
+33.6 +23.6 56 +45 +51 опасность
перегрева
1010.4 1007.9
09 18.08 ЮВ 2 10 км слаб. дождь 9/3 500 м
[Cb cap Ac lent Ci sp]
+27.6 +24.2 82 +39 +41 очень
душно
1008.6 1006.1
12 18.08 СВ 2 9000 м гроза, ливневой дождь 9/4 150 м
[Cb cap Ac lent Cs]
+24.6 +23.1 91 +33 +33 очень
душно
1010.9 1008.4 +34.5 18
15 18.08 штиль 0 9000 м мгла {гроза, дождь} 9/3 720 м
[Sc Ac lent Ci sp]
+25.4 +24.4 94 +35 +35 очень
душно
1012.4 1009.9
18 18.08 СЗ 1 7000 м зарница {гроза, дождь} 9/3 210 м
[Cb cap Ac lent Ci sp]
+25.2 +24.3 95 +35 +35 очень
душно
1012.0 1009.5 0.0
21 18.08 С 1 6000 м зарница 9/3 210 м
[Cb cap Ac lent Ci sp]
+25.0 +24.1 95 +34 +34 очень
душно
1011.7 1009.2
00 19.08 Ю 1 7000 м мгла 9/4 210 м
[Cb cap Ac lent Ci sp]
+25.3 +24.3 94 +35 +35 очень
душно
1012.6 1010.1 +24.2 18
03 19.08 Ю 2 8000 м мгла {туман} 9/3 540 м
[Cu hum Ac trans Ci fib]
+29.8 +24.3 72 +42 +48 опасность
перегрева
1012.8 1010.3
06 19.08 Ю 4 9000 м мгла {туман} 8/3 540 м
[Cb calv Ac trans Ci fib]
+32.4 +24.8 64 +45 +52 опасность
перегрева
1010.3 1007.8
09 19.08 ЮВ 5 7000 м мгла 8/3 540 м
[Cb calv Ac trans Ci fib]
+32.7 +24.0 60 +44 +46 опасность
перегрева
1008.1 1005.6
12 19.08 Ю 3 8000 м мгла 8/1 800 м
[Sc Ac lent Ci fib]
+29.5 +23.6 71 +40 +40 очень
душно
1009.6 1007.1 +33.4
15 19.08 штиль 0 10 км мгла 9/1 800 м
[Sc Ac trans Ci sp]
+28.1 +24.3 80 +39 +39 очень
душно
1011.2 1008.7
18 19.08 СЗ 1 9000 м мгла 8/1 800 м
[Sc Ac trans Ci fib]
+26.8 +24.3 86 +37 +37 очень
душно
1010.6 1008.1
21 19.08 штиль 0 8000 м мгла 9/1 800 м
[Sc Ac lent Ci fib]
+26.0 +24.3 90 +36 +36 очень
душно
1009.8 1007.3

 

Местоположение метеостанции Куала-Лумпур (Малайзия): широта 3.12 долгота 101.55 высота над уровнем моря 22 м.

В архиве по умолчанию представлена погода в Куала-Лумпуре за последнюю неделю. Архивные данные за месяц целиком и за предыдущие месяцы, начиная с января 2011 года, Вы можете получить, выбрав интересующий диапазон дат из раскрывающегося списка и нажав кнопку "Ввод!".


*Определитесь, кто Вы:
робот инопланетянин человек

Внимание! Время в таблицах - всемирное. Для получения местного времени необходимо прибавить поправку, которая равна 7 ч.

Смотрите также архив погоды в соседних городах и на ближайших метеорологических станциях:

Погода в Куала-Лумпур аэропорту (Малайзия) (48 км)
Погода в Малакке (Малайзия) (122 км)
Погода на Нагорье Кэмерон (Малайзия) (151 км)
Погода в Ситаване (Малайзия) (155 км)
Погода в Ипохе (Малайзия) (169 км)
Погода в Куантане (Малайзия) (198 км)
Погода в Пенанге (Малайзия) (282 км)
Погода в Аэропорту Сеная (Малайзия) (288 км)
Погода на Авиабазе Баттерворт (Малайзия) (292 км)
Погода в Пеканбару (Индонезия) (295 км)

Пояснения к столбцам:

Ветер - указаны скорость ветра в м/с - средняя за 10 мин, порывы в срок и между сроками (в фигурных скобках) и направление, откуда дует ветер: С - северный, СВ - северо-восточный, В - восточный, ЮВ - юго-восточный, Ю - южный, ЮЗ - юго-западный, З - западный, СЗ - северо-западный.
Видимость - горизонтальная дальность видимости в метрах или километрах. При видимости от 1 до 10 км при отсутствии осадков обычно наблюдается дымка, при ухудшении видимости до 1 км и менее - туман. В сухую погоду видимость может ухудшаться дымом, пылью или мглою.
Явления - указаны атмосферные явления, наблюдавшиеся в срок или в последний час перед сроком; фигурными скобками обозначены явления, наблюдавшиеся между сроками (за 1-3 часа до срока); квадратными скобками обозначены град или гололедные отложения с указанием их диаметра в мм.
Облачность - указаны через наклонную черту общая и нижняя облачность в баллах и высота нижней границы облаков в метрах; квадратными скобками обозначены формы облаков: Ci - перистые, Cs - перисто-слоистые, Cc - перисто-кучевые, Ac - высококучевые, As - высокослоистые, Sc - слоисто-кучевые, Ns - слоисто-дождевые, Cu - кучевые, Cb - кучево-дождевые. Подробнее классификацию облаков см. в Атласе облаков (PDF).
T - Температура воздуха - температура, измеренная на высоте 2 м над землей.
Td - Температура точки росы - температура, при понижении до которой содержащийся в воздухе водяной пар достигнет насыщения.
f - Относительная влажность воздуха - влажноcть воздуха, измеренная на высоте 2 м над землей.
Te - Эффективная температура - температура, которую ощущает одетый по сезону человек в тени. Характеристика душности погоды. При расчете учитывается влияние влажности воздуха и скорости ветра на теплоощущения человека.
Tes - Эффективная температура на солнце - температура, которую ощущает человек, с поправкой на солнечный нагрев. Характеристика знойности погоды. Зависит от высоты солнца над горизонтом, облачности и скорости ветра. Ночью, в пасмурную погоду, а также при ветре 12 м/с и более поправка равна нулю.
P - Атмосферное давление - приведенное к уровню моря атмосферное давление.
Po - Атмосферное давление - измеренное на уровне метеостанции атмосферное давление.
Tmin - Минимальная температура - минимум температуры воздуха на высоте 2 м над землей.
Tmax - Максимальная температура - максимум температуры воздуха на высоте 2 м над землей.
R - Количество осадков - Количество выпавших осадков за период времени, мм. При наведении курсора мыши на число - период времени, за который выпало указанное количество осадков.
R24 - Количество осадков - Количество выпавших осадков за 24 часа, мм.
S - Снежный покров - Высота снежного покрова, см. При наведении курсора мыши на число - состояние снежного покрова и степень покрытия местности в баллах.